< < Back
Terminal Aerodrome Forecast


Current Version              Previous Versions:   1  2  3  4  5  6  7  8  9  

Terminal Aerodrome Forecast

001
FTUS42 KGSP 301730
TAFAND
TAF
KAND 301730Z 3018/3118 01003KT P6SM VCTS BKN060CB
     FM310000 29003KT P6SM SCT070
     FM310600 01006KT P6SM FEW060
     FM311500 04010G18KT P6SM FEW060=

Latest METAR

478
SAUS70 KWBC 310300 RRE
MTRAND
METAR KAND 310256Z AUTO 00000KT 10SM OVC050 29/24 A2994 RMK AO2 SLP125
T02890244 53013


USA.gov is the U.S. government's official web portal to all federal, state and local government web resources and services.